Weather History for KP53 - October, 2011

Change the Weather History Date:

Friday, October 7, 2011

  Actual Average (KISQ) Record (KISQ)
Temperature  
Mean Temperature 66 °F -  
Max Temperature 78 °F 55 °F 70 °F (1963)
Min Temperature 55 °F 37 °F 23 °F (1964)
Cooling Degree Days 1    
Growing Degree Days 16 (Base 50)    
Moisture  
Dew Point 52 °F    
Average Humidity 64    
Maximum Humidity 86    
Minimum Humidity 47    
Precipitation  
Precipitation 0.00 in - - ()
Sea Level Pressure  
Sea Level Pressure 30.18 in    
Wind  
Wind Speed 9 mph (South)    
Max Wind Speed 17 mph    
Max Gust Speed 33 mph    
Averages and records for this station are not official NWS values.
T = Trace of Precipitation, MM = Missing Value Source: NWS Daily Summary

Daily Weather History Graph

Daily Weather History Graph

Search for Another Location

Airport or City:

Trip Planner

Search our weather history database for the weather conditions in past years. The results will help you decide how hot, cold, wet, or windy it might be!

Date:

Astronomy

Oct. 07, 2011 Rise Set
Actual Time 7:52 AM EDT 7:15 PM EDT
Civil Twilight 7:22 AM EDT 7:45 PM EDT
Nautical Twilight 6:47 AM EDT 8:20 PM EDT
Astronomical Twilight 6:12 AM EDT 8:55 PM EDT
Moon 5:09 PM EDT (10/7) 3:27 AM EDT (10/7)
Length of Visible Light 12h 22m
Length of Day
11h 22m
Waxing Gibbous, 83% of the Moon is Illuminated
Oct 7
Waxing Gibbous
Oct 11
Full
Oct 19
Last Quarter
Oct 26
New
Nov 2
First Quarter

Hourly Weather History & Observations

Time (EDT) Temp. Dew Point Humidity Pressure Visibility Wind Dir Wind Speed Gust Speed Precip Events Conditions
12:56 AM 55.0 °F 51.1 °F 86% 30.21 in - South 6.9 mph - N/A   Unknown
1:56 AM 55.9 °F 51.1 °F 84% 30.20 in - South 9.2 mph - N/A   Unknown
2:56 AM 55.9 °F 50.0 °F 80% 30.21 in - South 9.2 mph - N/A   Unknown
3:56 AM 55.9 °F 50.0 °F 80% 30.21 in - South 8.1 mph - N/A   Unknown
4:56 AM 55.9 °F 48.9 °F 77% 30.22 in - South 6.9 mph - N/A   Unknown
5:00 AM - - N/A% - - North - - N/A   Unknown
5:56 AM 57.0 °F 48.9 °F 74% 30.23 in - SSW 6.9 mph - N/A   Unknown
6:56 AM 57.0 °F 48.9 °F 74% 30.24 in - South 6.9 mph - N/A   Unknown
7:56 AM 57.0 °F 50.0 °F 77% 30.24 in - SSW 6.9 mph - N/A   Unknown
8:56 AM 57.9 °F 51.1 °F 78% 30.25 in - SSW 8.1 mph - N/A   Unknown
9:56 AM 62.1 °F 52.0 °F 70% 30.25 in - South 6.9 mph - N/A   Unknown
10:56 AM 66.9 °F 54.0 °F 63% 30.24 in - South 6.9 mph - N/A   Unknown
11:56 AM 73.0 °F 55.0 °F 53% 30.22 in - South 9.2 mph - N/A   Unknown
12:56 PM 75.0 °F 55.0 °F 50% 30.19 in - SSW 11.5 mph - N/A   Unknown
1:56 PM 77.0 °F 55.9 °F 48% 30.17 in - South 9.2 mph 17.3 mph N/A   Unknown
2:56 PM 77.0 °F 55.0 °F 47% 30.15 in - South 15.0 mph 24.2 mph N/A   Unknown
4:56 PM 75.0 °F 54.0 °F 48% 30.13 in - South 11.5 mph 23.0 mph N/A   Unknown
5:56 PM 73.9 °F 53.1 °F 48% 30.12 in - South 16.1 mph 25.3 mph N/A   Unknown
6:56 PM 71.1 °F 53.1 °F 53% 30.12 in - South 16.1 mph 25.3 mph N/A   Unknown
7:56 PM 69.1 °F 53.1 °F 57% 30.12 in - South 15.0 mph 25.3 mph N/A   Unknown
8:56 PM 68.0 °F 53.1 °F 59% 30.12 in - South 11.5 mph 20.7 mph N/A   Unknown
9:56 PM 68.0 °F 52.0 °F 56% 30.10 in - South 17.3 mph 33.4 mph N/A   Unknown
10:56 PM 68.0 °F 52.0 °F 56% 30.09 in - South 15.0 mph 27.6 mph N/A   Unknown
11:56 PM 68.0 °F 52.0 °F 56% 30.09 in - South 13.8 mph 25.3 mph N/A   Unknown